Location: Capelle
(50.3413°N, 1.9974°E)
Time: 14:43:35
(UTC+00:00)

Cosmos 2366 rocket - Visible Passes

Search period start: 11 April 2026 00:00
Search period end: 21 April 2026 00:00
Orbit: 953 x 997 km, 82.9° (Epoch: 11 April)

Date Brightness Start Highest point End Pass type
(mag) Time Alt. Az. Time Alt. Az. Time Alt. Az.
11 Apr 4.7 19:41:06 10° SE 19:46:26 32° E 19:51:46 10° NNE visible
11 Apr 4.7 21:25:36 10° SSW 21:31:35 50° WNW 21:37:34 10° N visible
11 Apr 6.7 23:17:24 10° WNW 23:18:37 11° NW 23:19:50 10° NW visible
12 Apr 4.1 20:05:30 10° SSE 20:11:27 53° E 20:17:24 10° NNE visible
12 Apr 5.6 21:51:44 10° SW 21:57:08 31° WNW 22:02:33 10° N visible
13 Apr 3.9 20:30:28 10° S 20:36:38 87° E 20:42:49 10° N visible
13 Apr 6.3 22:18:32 10° WSW 22:22:53 20° WNW 22:27:15 10° NNW visible
14 Apr 4.9 19:11:55 10° SE 19:16:59 28° E 19:22:02 10° NNE visible
14 Apr 4.5 20:55:55 10° SSW 21:01:58 58° WNW 21:08:03 10° N visible
14 Apr 6.7 22:46:29 10° WNW 22:48:50 12° NW 22:51:12 10° NNW visible
15 Apr 4.3 19:36:09 10° SSE 19:41:57 46° E 19:47:46 10° NNE visible
15 Apr 5.4 21:21:54 10° SW 21:27:29 35° WNW 21:33:06 10° N visible
16 Apr 3.9 20:00:57 10° S 20:07:05 76° E 20:13:14 10° NNE visible
16 Apr 6.2 21:48:29 10° WSW 21:53:12 22° WNW 21:57:54 10° NNW visible
17 Apr 4.4 20:26:16 10° SSW 20:32:23 66° WNW 20:38:31 10° N visible
17 Apr 6.7 22:16:00 10° W 22:19:05 14° NW 22:22:10 10° NNW visible
18 Apr 5.3 20:52:07 10° SW 20:57:51 40° WNW 21:03:37 10° N visible
19 Apr 4.0 19:31:28 10° S 19:37:33 67° E 19:43:39 10° NNE visible
19 Apr 6.1 21:18:30 10° WSW 21:23:30 25° WNW 21:28:30 10° N visible
20 Apr 4.2 19:56:40 10° SSW 20:02:48 76° W 20:08:59 10° N visible
20 Apr 6.7 21:45:42 10° W 21:49:20 16° WNW 21:52:59 10° NNW visible
